Southampton, United Kingdom

5:39 AM BST on September 21, 2017 (GMT +0100)
Southampton International

Weather History for EGHI - March, 2014

Change the Weather History Date:

Thursday, March 6, 2014

  Actual Average Record
Temperature  
Mean Temperature 42 °F -  
Max Temperature 50 °F 51 °F 55 °F (2003)
Min Temperature 35 °F 38 °F 26 °F (2009)
Degree Days  
Heating Degree Days 22    
Moisture  
Dew Point 40 °F    
Average Humidity 79    
Maximum Humidity 100    
Minimum Humidity 66    
Precipitation  
Precipitation 0.00 in - - ()
Sea Level Pressure  
Sea Level Pressure 30.25 in    
Wind  
Wind Speed 7 mph ()    
Max Wind Speed 18 mph    
Max Gust Speed -    
Visibility 6.2 miles    
Events Fog    
Averages and records for this station are not official NWS values.
T = Trace of Precipitation, MM = Missing Value Source: Averaged Metar Reports

Daily Weather History Graph

Daily Weather History Graph

Search for Another Location

Airport or City:

Trip Planner

Search our weather history database for the weather conditions in past years. The results will help you decide how hot, cold, wet, or windy it might be!

Date:

Astronomy

Mar. 06, 2014 Rise Set
Actual Time 6:39 AM GMT 5:54 PM GMT
Civil Twilight 6:06 AM GMT 6:27 PM GMT
Nautical Twilight 5:28 AM GMT 7:06 PM GMT
Astronomical Twilight 4:50 AM GMT 7:44 PM GMT
Moon 9:01 AM GMT (3/6) No Moon Set
Length of Visible Light 12h 21m
Length of Day
11h 15m
Waxing Crescent, 30% of the Moon is Illuminated
Mar 6
Waxing Crescent
Mar 8
First Quarter
Mar 16
Full
Mar 24
Last Quarter
Mar 30
New

Hourly Weather History & Observations

Time (GMT) Temp. Windchill Dew Point Humidity Pressure Visibility Wind Dir Wind Speed Gust Speed Precip Events Conditions
5:50 AM 35.6 °F - 35.6 °F 100% 30.27 in - South 1.2 mph - N/A   Clear
6:20 AM 35.6 °F - 33.8 °F 93% 30.27 in 6.2 mi East 1.2 mph - N/A Fog Fog
6:50 AM 35.6 °F - 35.6 °F 100% 30.27 in 6.2 mi East 1.2 mph - N/A   Unknown
7:20 AM 35.6 °F - 33.8 °F 93% 30.27 in 6.2 mi East 1.2 mph - N/A Fog Shallow Fog
7:50 AM 37.4 °F - 37.4 °F 100% 30.27 in 6.2 mi Variable 1.2 mph - N/A   Mostly Cloudy
8:20 AM 44.6 °F - 42.8 °F 93% 30.27 in 6.2 mi Variable 2.3 mph - N/A   Mostly Cloudy
8:50 AM 46.4 °F 45.2 °F 44.6 °F 93% 30.27 in 6.2 mi South 3.5 mph - N/A   Mostly Cloudy
9:20 AM 46.4 °F 42.9 °F 44.6 °F 93% 30.30 in 6.2 mi South 6.9 mph - N/A   Mostly Cloudy
9:50 AM 48.2 °F - 44.6 °F 87% 30.30 in 6.2 mi SSW 8.1 mph - N/A   Mostly Cloudy
10:20 AM 48.2 °F - 41.0 °F 76% 30.30 in 6.2 mi SSW 12.7 mph - N/A   Mostly Cloudy
10:50 AM 50.0 °F - 41.0 °F 71% 30.30 in 6.2 mi SSW 13.8 mph - N/A   Mostly Cloudy
11:20 AM 50.0 °F - 41.0 °F 71% 30.27 in 6.2 mi South 16.1 mph - N/A   Mostly Cloudy
11:50 AM 50.0 °F - 39.2 °F 66% 30.27 in 6.2 mi SSW 17.3 mph - N/A   Mostly Cloudy
12:20 PM 50.0 °F - 41.0 °F 71% 30.27 in 6.2 mi SSW 12.7 mph - N/A   Mostly Cloudy
12:50 PM 50.0 °F - 41.0 °F 71% 30.27 in 6.2 mi SSW 12.7 mph - N/A   Mostly Cloudy
1:20 PM 50.0 °F - 39.2 °F 66% 30.24 in 6.2 mi South 17.3 mph - N/A   Mostly Cloudy
1:50 PM 50.0 °F - 41.0 °F 71% 30.24 in 6.2 mi SSW 15.0 mph - N/A   Mostly Cloudy
2:20 PM 50.0 °F - 41.0 °F 71% 30.24 in 6.2 mi SSW 18.4 mph - N/A   Mostly Cloudy
2:50 PM 50.0 °F - 39.2 °F 66% 30.24 in 6.2 mi SSW 15.0 mph - N/A   Scattered Clouds
3:20 PM 50.0 °F - 39.2 °F 66% 30.24 in 6.2 mi South 16.1 mph - N/A   Scattered Clouds
3:50 PM 50.0 °F - 41.0 °F 71% 30.24 in 6.2 mi SSW 17.3 mph - N/A   Scattered Clouds
4:20 PM 48.2 °F - 41.0 °F 76% 30.24 in 6.2 mi SSW 16.1 mph - N/A   Scattered Clouds
4:50 PM 48.2 °F - 41.0 °F 76% 30.24 in 6.2 mi SSW 16.1 mph - N/A   Scattered Clouds
5:20 PM 48.2 °F - 41.0 °F 76% 30.24 in 6.2 mi SSW 11.5 mph - N/A   Scattered Clouds
5:50 PM 48.2 °F - 41.0 °F 76% 30.24 in 6.2 mi SSW 9.2 mph - N/A   Partly Cloudy
6:20 PM 46.4 °F 41.9 °F 41.0 °F 81% 30.24 in - South 9.2 mph - N/A   Clear
6:50 PM 48.2 °F - 41.0 °F 76% 30.24 in - South 6.9 mph - N/A   Clear
7:20 PM 48.2 °F - 41.0 °F 76% 30.24 in - South 8.1 mph - N/A   Clear
7:50 PM 48.2 °F - 41.0 °F 76% 30.24 in 6.2 mi South 6.9 mph - N/A   Partly Cloudy
8:20 PM 46.4 °F 42.9 °F 41.0 °F 81% 30.21 in 6.2 mi South 6.9 mph - N/A   Partly Cloudy
8:50 PM 48.2 °F - 41.0 °F 76% 30.21 in 6.2 mi South 9.2 mph - N/A   Partly Cloudy
9:20 PM 48.2 °F - 41.0 °F 76% 30.21 in 6.2 mi SSE 3.5 mph - N/A   Partly Cloudy
9:50 PM 48.2 °F - 42.8 °F 82% 30.21 in 6.2 mi Variable 2.3 mph - N/A   Partly Cloudy
10:20 PM 48.2 °F - 42.8 °F 82% 30.18 in 6.2 mi Variable 2.3 mph - N/A   Partly Cloudy